CZ-11 R/B (46463 NORAD) Tracking and Keplerian Element Data

This shows tracking and keplerian element data for the satellite.

Feedback or suggestion? Click here.




ElementValue
Catalog46463
NameCZ-11 R/B
Epoch Orbit463
Epoch Day288.89310187
Epoch Year2020
RAAN345.7785
Inclination97.4717
Eccentricity0.0268716
Argument of Perigee207.2178
Mean Anonmoly151.4779
Mean Motion15.54121964
Decay Rate0.00109656
L11 46463U 20065K 20288.89310187 .00109656 21954-5 30762-3 0 9997
L22 46463 97.4717 345.7785 0268716 207.2178 151.4779 15.54121964 4631

Live tracking and technical data element details for CZ-11 R/B (NORAD 46463). CZ-11 R/B can be tracked NOW for your location showing map with azimuth and elevation plus other details from your city location.

Track the satellite on the map from your city or location and see movement details for azimuth, elevation, latitude, longitude, range, height, and movement on the map or in text.







IsCatalogInMostPopularTable: catalog: 46463, numindb: 22
Update: records affected: 1



GetName: 46463 CZ-11 R/B

Hit Count: updated at: Tue, 01 Dec 2020 21:30:42 GMT